[[{"header":{"parameterUnit":"m.s-1","parameterCategory":1,"la1":30.2991,"la2":30.254,"lo1":-89.0895,"lo2":-89.0444,"dy":0.0017,"dx":0.0017,"nx":28,"ny":28,"refTime":"2026-02-25T09:00:00:Z","depth":0,"parameterNumber":2,"parameterNumberName":"U-component_of_WINDS"},"data":[0,0,0,0,0,0,0,0,0,0,0,0,0,0,0,0,0,0,0,0,0,0,0,0,0,0,0,0,0,0,0,0,0,0,0,0,0,0,0,0,0,0,0,0,0,0,0,0,0,0,0,0,0,0,0,0,0,0,0.0927,0.0927,0,0.0937,0.0937,0.0937,0.093,0.093,0.093,0.0929,0.0942,0.0943,0.0943,0,0,0,0,0,0,0,0,0,0,0,0,0,0.0906,0.0906,0.0927,0.0927,0.0928,0.0937,0.0937,0.0937,0.093,0.093,0.0929,0.0929,0.0942,0.0943,0.0943,0,0,0,0,0,0,0,0,0,0,0,0,0,0.0915,0.0906,0.0927,0.0925,0.0925,0.0937,0.0937,0.0937,0.093,0.093,0.0929,0.0929,0.0942,0.0943,0.0944,0.0959,0,0,0.0947,0.0947,0,0,0,0,0,0,0,0,0.0915,0.0916,0.0925,0.0925,0.0925,0.0932,0.0934,0.0945,0.093,0.0928,0.0929,0.0929,0.0939,0.094,0.0943,0.096,0.096,0.0947,0.0947,0.0948,0.0948,0,0,0,0,0,0,0,0.0914,0.0916,0.0931,0.0926,0.0925,0.0925,0.0925,0.0936,0.0937,0.0929,0.0928,0.0929,0.0939,0.0942,0.0944,0.096,0.0947,0.0947,0.0948,0.0948,0.099,0.0991,0,0,0,0,0,0,0.0913,0.0915,0.0931,0.0931,0.0919,0.0925,0.0926,0.093,0.0936,0.0937,0.0929,0.0929,0.0941,0.0943,0.0944,0.0963,0.0948,0.0949,0.0949,0.099,0.0991,0.0991,0,0,0,0,0,0,0.0913,0.0915,0.0931,0.0923,0.0925,0.0926,0.0931,0.0931,0.0934,0.0937,0.0937,0.0933,0.0941,0.0943,0.0955,0.0963,0.0949,0.095,0.0989,0.099,0.0991,0.1001,0,0,0,0,0,0,0.0912,0.0915,0.092,0.0923,0.0926,0.0941,0.0931,0.0931,0.0935,0.0934,0.094,0.0941,0.0941,0.0954,0.0956,0.0964,0.0951,0.0989,0.099,0.0991,0.1,0.1002,0.1004,0,0,0,0,0,0.0912,0.0923,0.092,0.0922,0.0932,0.0941,0.0943,0.0941,0.0936,0.0942,0.0944,0.094,0.0962,0.0955,0.0958,0.0967,0.0988,0.0989,0.0991,0.0999,0.1002,0.1004,0,0,0,0,0,0,0.0921,0.0923,0.092,0.0933,0.0937,0.094,0.0947,0.0944,0.095,0.0949,0.0949,0.095,0.0963,0.0966,0.0959,0.0982,0.0974,0.0976,0.098,0.0982,0.0984,0.0984,0.0951,0,0,0,0,0,0.0925,0.0931,0.0933,0.0944,0.0946,0.0946,0.095,0.0949,0.0953,0.0955,0.0958,0.0964,0.0972,0.0977,0.0984,0.1,0.1002,0.1007,0.1009,0.1011,0.1013,0.1022,0.1025,0.0995,0.0995,0.0995,0,0,0.0933,0.0934,0.0939,0.0946,0.0949,0.0956,0.0948,0.0956,0.0962,0.0957,0.0969,0.0971,0.0977,0.0991,0.0998,0.0994,0.1021,0.1012,0.1013,0.1015,0.1023,0.1026,0.1029,0.0996,0.0996,0.0996,0,0,0.095,0.0952,0.0961,0.0964,0.0968,0.0968,0.0971,0.0974,0.0975,0.0987,0.0983,0.0991,0.1004,0.1009,0.1013,0.1032,0.103,0.1035,0.1045,0.1054,0.1057,0.1059,0.1067,0.1069,0.1037,0.1037,0.1037,0,0.096,0.097,0.0967,0.0976,0.0979,0.0974,0.0984,0.0987,0.0994,0.0997,0.0993,0.101,0.1013,0.1029,0.1033,0.1037,0.104,0.1035,0.1056,0.1059,0.106,0.1068,0.1071,0.1037,0.1037,0.1037,0.1037,0,0.0982,0.0989,0.0996,0.1002,0.1007,0.1016,0.1015,0.102,0.1019,0.1019,0.1032,0.1036,0.1044,0.1048,0.1046,0.1063,0.1061,0.1056,0.1049,0.1064,0.1071,0.1074,0.1038,0.1038,0.1038,0.1038,0,0,0.1007,0.101,0.1013,0.1016,0.102,0.1026,0.1035,0.1042,0.1047,0.1052,0.1061,0.1072,0.1068,0.1073,0.1072,0.1079,0.1096,0.1074,0.1074,0.1079,0.1116,0.112,0.1123,0.1094,0.1094,0.1094,0.1116,0,0.1026,0.1041,0.1039,0.1054,0.1061,0.1056,0.1064,0.1068,0.1069,0.1076,0.1078,0.1086,0.1079,0.1082,0.109,0.1092,0.1103,0.109,0.1103,0.1104,0.1103,0.1127,0.1131,0.1151,0.1118,0.1119,0.1119,0,0.105,0.1055,0.107,0.1073,0.1076,0.1084,0.109,0.1097,0.1101,0.1102,0.1107,0.1104,0.1115,0.1106,0.1121,0.1113,0.1118,0.112,0.112,0.1123,0.1113,0.1131,0.1157,0.116,0.1123,0.1123,0.1123,0,0.1068,0.1078,0.1089,0.1091,0.1095,0.11,0.1102,0.1106,0.1111,0.1117,0.112,0.1127,0.1132,0.1138,0.1139,0.1132,0.1154,0.1145,0.1156,0.1156,0.1162,0.1162,0.1191,0.1163,0.1163,0.1163,0.1163,0,0.109,0.11,0.1097,0.1104,0.1116,0.1113,0.1125,0.1126,0.113,0.1137,0.1133,0.1141,0.114,0.1148,0.1149,0.1162,0.1164,0.1165,0.1165,0.1166,0.1166,0.117,0.1169,0.1164,0.1164,0.1164,0.1164,0,0.1112,0.111,0.1122,0.1124,0.1125,0.1134,0.1136,0.1143,0.1143,0.1153,0.1155,0.1156,0.1166,0.1166,0.1177,0.1177,0.1194,0.1192,0.1192,0.1192,0.1203,0.1202,0.1236,0.1241,0.121,0.121,0.121,0,0.1127,0.1134,0.1137,0.1141,0.1143,0.115,0.1155,0.1152,0.1157,0.1163,0.117,0.1178,0.1185,0.1201,0.1203,0.1212,0.1211,0.1222,0.1212,0.1213,0.1212,0.1212,0.1214,0.1224,0.1225,0.1225,0.1225,0,0.1153,0.1152,0.1158,0.1163,0.1168,0.1173,0.1178,0.1182,0.118,0.1186,0.1195,0.12,0.1211,0.122,0.1228,0.1231,0.1229,0.1228,0.1231,0.1233,0.1233,0.1234,0.1198,0.1228,0.1227,0.1227,0.1227,0.1227,0.1172,0.1179,0.1182,0.1189,0.1192,0.1196,0.1203,0.1203,0.121,0.1218,0.1217,0.1227,0.1232,0.1242,0.1246,0.1255,0.1251,0.1256,0.1257,0.1258,0.126,0.123,0.1256,0.1256,0.1256,0.1256,0.1256,0,0.1199,0.1201,0.1207,0.1213,0.1219,0.1214,0.1218,0.1224,0.1233,0.1237,0.1243,0.1254,0.1263,0.1266,0.1274,0.1281,0.128,0.1284,0.1284,0.1285,0.1262,0.1259,0.1284,0.1284,0.1284,0.1284,0.1284,0.1284,0.1214,0.1225,0.1225,0.1238,0.1239,0.1248,0.1252,0.1256,0.1259,0.1271,0.1278,0.1279,0.1283,0.1292,0.13,0.1301,0.1305,0.1309,0.131,0.1289,0.1286,0.1284,0.1281,0.131,0.131,0.1331,0.1332,0.1332]},{"header":{"parameterUnit":"m.s-1","parameterCategory":1,"la1":30.2991,"la2":30.254,"lo1":-89.0895,"lo2":-89.0444,"dy":0.0017,"dx":0.0017,"nx":28,"ny":28,"refTime":"2026-02-25T09:00:00:Z","depth":0,"parameterNumber":3,"parameterNumberName":"V-component_of_WINDS"},"data":[0,0,0,0,0,0,0,0,0,0,0,0,0,0,0,0,0,0,0,0,0,0,0,0,0,0,0,0,0,0,0,0,0,0,0,0,0,0,0,0,0,0,0,0,0,0,0,0,0,0,0,0,0,0,0,0,0,0,5.3864,5.3865,0,5.3964,5.3965,5.3967,5.3949,5.3947,5.3946,5.3944,5.4047,5.4051,5.4055,0,0,0,0,0,0,0,0,0,0,0,0,0,5.3656,5.366,5.3863,5.3865,5.3866,5.3964,5.3966,5.3967,5.3949,5.3947,5.3945,5.3943,5.4045,5.405,5.4056,0,0,0,0,0,0,0,0,0,0,0,0,0,5.3751,5.3661,5.3863,5.3869,5.3871,5.3964,5.3966,5.3967,5.395,5.3947,5.3945,5.3942,5.4043,5.405,5.4056,5.415,0,0,5.4076,5.4079,0,0,0,0,0,0,0,0,5.3745,5.3758,5.3867,5.3869,5.3871,5.3941,5.393,5.4028,5.3951,5.392,5.3944,5.3941,5.4014,5.4023,5.4047,5.4155,5.4159,5.4077,5.4081,5.4084,5.4086,0,0,0,0,0,0,0,5.3739,5.3754,5.3903,5.3869,5.3871,5.3867,5.3877,5.3949,5.398,5.3922,5.3921,5.3934,5.4014,5.4041,5.405,5.416,5.4077,5.4083,5.4087,5.4089,5.4352,5.4355,0,0,0,0,0,0,5.373,5.3748,5.39,5.3906,5.38,5.3873,5.3884,5.3921,5.398,5.3986,5.3936,5.3932,5.4031,5.4042,5.4053,5.4168,5.4084,5.409,5.4094,5.4349,5.4353,5.4356,0,0,0,0,0,0,5.3726,5.3744,5.3896,5.3827,5.3846,5.3879,5.3921,5.3925,5.3952,5.399,5.3995,5.3957,5.4029,5.4044,5.4126,5.4172,5.4093,5.4099,5.4345,5.435,5.4354,5.4398,0,0,0,0,0,0,5.372,5.3743,5.3778,5.3828,5.385,5.3968,5.3924,5.3929,5.3963,5.396,5.4011,5.4017,5.4028,5.4117,5.4133,5.4179,5.4104,5.4341,5.4347,5.4353,5.4393,5.4404,5.4413,0,0,0,0,0,5.3713,5.3786,5.378,5.3799,5.3895,5.397,5.3983,5.3994,5.3967,5.4003,5.4028,5.4016,5.4164,5.4125,5.4143,5.4192,5.4339,5.4346,5.4352,5.4388,5.4402,5.4413,0,0,0,0,0,0,5.374,5.3793,5.3787,5.3878,5.392,5.3967,5.4014,5.4008,5.4058,5.4053,5.4064,5.4076,5.4161,5.4184,5.4141,5.4287,5.4247,5.4258,5.4269,5.4281,5.4291,5.4284,5.4109,0,0,0,0,0,5.3757,5.3813,5.3856,5.3933,5.3954,5.398,5.4013,5.4019,5.4062,5.408,5.411,5.4153,5.421,5.4247,5.43,5.4396,5.4408,5.4438,5.4448,5.4456,5.4466,5.4521,5.4535,5.4378,5.4378,5.4378,0,0,5.3791,5.3827,5.3862,5.3939,5.3972,5.4031,5.3995,5.4058,5.4103,5.4089,5.417,5.4194,5.4243,5.4333,5.4374,5.4355,5.4512,5.4465,5.4471,5.4477,5.4529,5.4544,5.4557,5.4383,5.4382,5.4381,0,0,5.3886,5.3918,5.3986,5.4021,5.4071,5.4089,5.4105,5.4154,5.417,5.4251,5.4243,5.4295,5.4391,5.4427,5.4458,5.4567,5.4559,5.4584,5.4637,5.469,5.4703,5.4714,5.4755,5.4769,5.4593,5.4594,5.4594,0,5.3923,5.4011,5.4022,5.4087,5.4122,5.4113,5.4183,5.4216,5.4281,5.4306,5.4284,5.4406,5.4438,5.4537,5.4564,5.4589,5.4609,5.4579,5.47,5.4711,5.4722,5.4761,5.4776,5.4597,5.4596,5.4596,5.4596,0,5.4055,5.4117,5.4166,5.4231,5.4271,5.4338,5.436,5.4399,5.4401,5.4421,5.4505,5.4543,5.4605,5.4629,5.4631,5.4729,5.4716,5.4697,5.4658,5.474,5.4777,5.4792,5.4601,5.46,5.4599,5.4598,0,0,5.417,5.4241,5.4259,5.4289,5.4345,5.4393,5.446,5.4522,5.4556,5.4602,5.466,5.4742,5.4725,5.476,5.4766,5.4812,5.49,5.4788,5.4789,5.4809,5.5013,5.5029,5.5046,5.4894,5.4897,5.4899,5.501,0,5.4271,5.439,5.4402,5.4509,5.4567,5.4561,5.4619,5.466,5.4681,5.4733,5.4755,5.4815,5.4787,5.4808,5.4854,5.4879,5.4941,5.4871,5.4949,5.4951,5.4939,5.5065,5.5082,5.5184,5.5024,5.5027,5.5028,0,5.4404,5.4456,5.4569,5.4619,5.4644,5.4696,5.4755,5.4805,5.4852,5.4863,5.4903,5.4904,5.4974,5.4931,5.5029,5.4981,5.5013,5.5031,5.5035,5.5044,5.4996,5.508,5.5217,5.5233,5.5051,5.5049,5.5048,0,5.4479,5.4576,5.4657,5.4683,5.4742,5.478,5.4807,5.4851,5.4888,5.4939,5.4963,5.5021,5.5054,5.5099,5.5116,5.5082,5.5213,5.5171,5.5226,5.5226,5.5256,5.5254,5.5402,5.5273,5.5273,5.5272,5.5272,0,5.4592,5.4662,5.4692,5.4742,5.482,5.4834,5.4911,5.4936,5.4976,5.5031,5.5027,5.5079,5.5097,5.5152,5.5165,5.5246,5.5259,5.5272,5.5275,5.5274,5.5272,5.5296,5.529,5.5277,5.5276,5.5275,5.5274,0,5.4689,5.4712,5.48,5.485,5.4864,5.492,5.4963,5.5011,5.5031,5.5101,5.5118,5.515,5.5214,5.5235,5.5313,5.5322,5.5416,5.5412,5.5401,5.5402,5.5457,5.5452,5.5627,5.5652,5.5505,5.5506,5.5507,0,5.4761,5.4815,5.4871,5.4908,5.4936,5.4996,5.5034,5.5049,5.5089,5.5148,5.519,5.5254,5.5307,5.5411,5.5441,5.5501,5.5499,5.5556,5.5508,5.5506,5.5503,5.55,5.5507,5.5566,5.5567,5.5569,5.557,0,5.4886,5.4895,5.495,5.501,5.5056,5.5104,5.515,5.518,5.5203,5.5248,5.5315,5.5355,5.5436,5.55,5.5562,5.5589,5.5585,5.5584,5.5601,5.5601,5.5593,5.5601,5.5428,5.5581,5.558,5.5579,5.5578,5.5578,5.4974,5.5022,5.507,5.5133,5.5169,5.5213,5.5262,5.5288,5.5344,5.5412,5.5417,5.549,5.5537,5.5619,5.565,5.5707,5.5691,5.5714,5.572,5.5727,5.5732,5.5583,5.5718,5.5718,5.5718,5.5717,5.5717,0,5.5101,5.5132,5.5189,5.5254,5.5304,5.5294,5.5345,5.5388,5.5452,5.5496,5.5548,5.5626,5.5689,5.5724,5.5788,5.5827,5.5826,5.5843,5.5842,5.5849,5.5742,5.5722,5.5843,5.5843,5.5843,5.5843,5.5843,5.5843,5.5173,5.5255,5.527,5.5371,5.5402,5.5473,5.5504,5.5544,5.558,5.5668,5.572,5.5743,5.5784,5.5851,5.5909,5.5917,5.5942,5.5961,5.5968,5.5868,5.5856,5.5843,5.5826,5.5966,5.5966,5.6071,5.6072,5.6072]}]]